Location: Unspecified
(48.8656°N, 0.0000°E)
Time: 12:37:43
(UTC+00:00)

SR - Pass Details

Date: 02 July 2019
Orbit: 580 x 876 km, 66.7° (Epoch: 20 July)

Event Time Altitude Azimuth Distance (km) Brightness Sun altitude
Rises 23:59:37 0° 160° (SSE) 2,786 - -18.1°
Reaches altitude 10° 00:03:01 10° 131° (SE) 1,899 - -18.1°
Exits shadow 00:04:13 12° 114° (ESE) 1,770 ? -18.1°
Maximum altitude 00:04:47 12° 106° (ESE) 1,758 ? -18.1°
Drops below altitude 10° 00:06:34 10° 81° (E) 1,928 ? -18.1°
Sets 00:10:05 0° 52° (NE) 2,877 ? -18.0°
